Flag for Norway Weather past 2 weeks in Osøyro, Norway

Now
79 °F

Sunny.


Feels Like: 80 °F
Forecast: 61 / 79 °F
Wind: 3 mph from Northwest

Location: Bergen / Flesland

Current Time: Jul 22, 2014 at 5:37:29 PM

Latest Report: Jul 22, 2014 at 4:00 PM


Visibility: 22 mi

Pressure: 30.29 "Hg

Humidity: 50%

Dew point: 59 °F

Location of OsøyroLocation

Historic Weather in Osøyro — Graph

°F

Osøyro temperature yesterday

Maximum temperature yesterday: 81 °F (at 4:00 PM)
Minimum temperature yesterday: 64 °F (at 3:00 AM)
Average temperature yesterday: 72 °F

Past Weeks' High & Low Weather Summary

 TemperatureHumidityPressure
High83 °F (Jul 9, 5:00 PM)98% (Jul 16, 5:00 AM)30.29 "Hg (Jul 16, 5:00 AM)
Low51 °F (Jul 8, 4:00 AM)32% (Jul 20, 4:00 PM)29.67 "Hg (Jul 14, 8:00 AM)
Average65 °F73%30.02 "Hg
* Reported Jul 7 5:00 PM — Jul 22 4:00 PM, Osøyro, Weather by CustomWeather, © 2014

Note: Actual official high and low records may vary slightly from our data, if they occured in-between our weather recording intervals... More about our weather records

Advertising

Osøyro weather history for previous 24 hours

 ConditionsComfort  
Time TempWeatherWind HumidityBarometerVisibility
4:00 PM
Jul 22
79 °FSunny.3 mph50%30.29 "Hg22 mi
3:00 PM78 °FPartly sunny.3 mph50%30.29 "Hg19 mi
2:00 PM77 °FScattered clouds.3 mph55%30.28 "Hg19 mi
1:00 PM76 °FOvercast.3 mph58%30.28 "Hg19 mi
12:00 PM76 °FPassing clouds.2 mph53%30.27 "Hg17 mi
11:00 AM74 °FSunny.3 mph57%30.27 "Hg17 mi
10:00 AM75 °FOvercast.1 mph49%30.25 "Hg19 mi
9:00 AM72 °FOvercast.1 mph58%30.24 "Hg22 mi
8:00 AM68 °FPassing clouds.1 mph65%30.23 "Hg19 mi
7:00 AM66 °FScattered clouds.No wind72%30.22 "Hg25 mi
6:00 AM63 °FSunny.No wind74%30.22 "Hg28 mi
5:00 AM62 °FPartly sunny.1 mph80%30.22 "Hg28 mi
3:00 AM64 °FClear.1 mph76%30.21 "Hg28 mi
2:00 AM64 °FClear.1 mph78%30.21 "Hg28 mi
1:00 AM65 °FClear.1 mph70%30.21 "Hg31 mi
12:00 AM67 °FClear.1 mph68%30.20 "Hg31 mi
11:00 PM
Jul 21
70 °FOvercast.1 mph60%30.20 "Hg31 mi
10:00 PM70 °FPartly sunny.2 mph62%30.19 "Hg31 mi
9:00 PM71 °FSunny.2 mph59%30.17 "Hg25 mi
8:00 PM72 °FSunny.5 mph54%30.16 "Hg22 mi
7:00 PM74 °FSunny.5 mph51%30.14 "Hg28 mi
6:00 PM77 °FPassing clouds.7 mph42%30.13 "Hg28 mi
5:00 PM81 °FSunny.6 mph38%30.12 "Hg17 mi
Weather by CustomWeather, © 2014

See weather overviewHow to use our weather pages